Terminal Aerodrome Forecast
Issued by NWS

Home | Current Version | Previous Version | Graphics & Text | Print | Product List | Glossary On
Versions: 1 2 3 4 5 6 7 8 9 10 11 12 13 14 15 16 17 18
732
FTUS43 KMPX 231328 AAA
TAFRNH
TAF AMD
KRNH 231328Z 2313/2412 34012KT P6SM BKN015
     FM231500 01009KT P6SM SCT020 BKN180
     FM240300 03011KT P6SM VCSH OVC050
     FM240800 03014G23KT 4SM -SN OVC030
     FM240900 03015G24KT 2SM -SN OVC015=

USA.gov is the U.S. government's official web portal to all federal, state and local government web resources and services.